Flag for Italy Weather past 2 weeks in Varese, Italy

Now
64 °F

Mild.


Feels Like: 64 °F
Forecast: 62 / 75 °F
Wind: 1 mph from Southwest

Location: Stabio

Current Time: Aug 29, 2014 at 10:06:25 AM

Latest Report: Aug 29, 2014 at 9:00 AM


Visibility: N/A

Pressure: 30.10 "Hg

Humidity: 95%

Dew point: 63 °F

Location of VareseLocation

Historic Weather in Varese — Graph

°F

Varese temperature yesterday

Maximum temperature yesterday: 75 °F (at 4:00 PM)
Minimum temperature yesterday: 55 °F (at 3:00 AM)
Average temperature yesterday: 64 °F

Past Weeks' High & Low Weather Summary

 TemperatureHumidityPressure
High82 °F (Aug 27, 4:00 PM)100% (Aug 20, 7:00 AM)30.12 "Hg (Aug 20, 7:00 AM)
Low49 °F (Aug 17, 7:00 AM)31% (Aug 14, 4:00 PM)29.74 "Hg (Aug 14, 4:00 PM)
Average64 °F84%29.95 "Hg
* Reported Aug 14 8:00 AM — Aug 29 8:00 AM, Varese, Weather by CustomWeather, © 2014

Note: Actual official high and low records may vary slightly from our data, if they occured in-between our weather recording intervals... More about our weather records

Advertising

Varese weather history for previous 24 hours

 ConditionsComfort  
Time TempWeatherWind HumidityBarometerVisibility
8:00 AM
Aug 29
62 °FCool.1 mph97%30.09 "HgN/A
7:00 AM61 °FCool.No wind97%30.09 "HgN/A
6:00 AM60 °FCool.1 mph98%30.07 "HgN/A
5:00 AM60 °FCool.No wind98%30.08 "HgN/A
4:00 AM58 °FCool.1 mph98%30.09 "HgN/A
3:00 AM58 °FCool.1 mph98%30.08 "HgN/A
2:00 AM59 °FCool.No wind98%30.09 "HgN/A
1:00 AM60 °FCool.No wind98%30.10 "HgN/A
12:00 AM60 °FCool.1 mph97%30.09 "HgN/A
11:00 PM
Aug 28
60 °FCool.1 mph98%30.09 "HgN/A
10:00 PM61 °FCool.1 mph98%30.08 "HgN/A
9:00 PM63 °FMild.1 mph96%30.06 "HgN/A
8:00 PM65 °FMild.1 mph92%30.03 "HgN/A
7:00 PM69 °FMild.2 mph85%30.03 "HgN/A
6:00 PM74 °FMild.2 mph64%30.01 "HgN/A
5:00 PM74 °FMild.3 mph65%30.02 "HgN/A
4:00 PM75 °FMild.5 mph68%30.03 "HgN/A
3:00 PM74 °FMild.3 mph67%30.03 "HgN/A
2:00 PM73 °FMild.5 mph71%30.05 "HgN/A
1:00 PM70 °FMild.3 mph66%30.06 "HgN/A
12:00 PM66 °FMild.2 mph93%30.07 "HgN/A
11:00 AM64 °FMild.1 mph97%30.08 "HgN/A
10:00 AM62 °FCool.2 mph97%30.07 "HgN/A
Weather by CustomWeather, © 2014

See weather overviewHow to use our weather pages